Regional Weather Roundup
Issued by NWS Newport/Morehead, NC

Home | Current Version | Previous Version | Text Only | Print | Product List | Glossary On
Versions: 1 2 3 4 5 6 7 8 9 10 11 12 13 14 15 16 17 18 19 20 21 22 23 24 25 26 27 28 29 30 31 32 33 34 35 36 37 38 39 40 41 42 43 44 45 46 47 48 49 50
000
ASUS42 KMHX 071525
RWRMHX
WEATHER ROUNDUP FOR EASTERN NORTH CAROLINA
NATIONAL WEATHER SERVICE NEWPORT/MOREHEAD CITY NC
1100 AM EDT TUE JUL 07 2015

NOTE: "FAIR" INDICATES FEW OR NO CLOUDS BELOW 12,000 FEET
WITH NO SIGNIFICANT WEATHER AND/OR OBSTRUCTIONS TO VISIBILITY

NCZ015>017-031-032-045>047-102-103-071600-
NORTH COAST

CITY           SKY/WX    TMP DP  RH WIND       PRES   REMARKS
EDENTON          N/A     83  74  72 SW7       30.13F
ELIZABETH CITY SUNNY     84  75  74 S13       30.13S
KITTY HAWK     SUNNY     87  72  60 SW7       30.12S
MANTEO         SUNNY     85  70  60 SW9       30.14S

$$

NCZ045>047-081-094-103-104-071600-
CENTRAL COAST

CITY           SKY/WX    TMP DP  RH WIND       PRES   REMARKS
FRISCO         SUNNY     81  74  79 SW8       30.16S
SWANQUARTER      N/A     86 N/A N/A SW8       30.12S

$$

NCZ095-097-098-100-101-071600-
SOUTHERN COAST

CITY           SKY/WX    TMP DP  RH WIND       PRES   REMARKS
BEAUFORT       MOSUNNY   84  74  71 SW14      30.16S
CEDAR ISLAND     N/A     86 N/A N/A SW6G15    30.18S
JACKSONVILLE   MOSUNNY   85  71  63 VRB5      30.14S
PINEY ISLAND   MOSUNNY  N/A N/A N/A SW9       30.14F
WILMINGTON     MOSUNNY   87  72  60 SW6       30.15S


$$

NCZ011>013-027>030-043-044-078>080-089-090>093-098-071600-
COASTAL PLAIN

CITY           SKY/WX    TMP DP  RH WIND       PRES   REMARKS
AHOSKIE        SUNNY     82  73  75 CALM      30.12F
CLINTON        MOSUNNY   85  76  73 SW6       30.15S
ELIZABETHTOWN  MOSUNNY   86  71  60 W6        30.15S
GOLDSBORO      SUNNY     85  74  68 SW7       30.11F
GREENVILLE     SUNNY     86  75  70 SW9       30.14F
HAVELOCK       MOSUNNY   87  71  58 SW10      30.16S
KENANSVILLE    SUNNY     85  70  60 SW6       30.15F
KINSTON        SUNNY     86  72  62 SW8       30.14F
NEW BERN       MOSUNNY   86  73  65 VRB7      30.16S
RICHLANDS      PTSUNNY   90  72  55 S8        30.15S
ROCKY MOUNT    MOSUNNY   85  74  69 SW5       30.13S
WASHINGTON     MOSUNNY   85  72  65 SW7       30.14S
WHITEVILLE     MOSUNNY   85  73  65 SW5       30.15S

$$

AMZ130-135-150-152-154-156-158-170-250-252-270-ANZ085-086-088-633-658-670-071600-
MARINE OBSERVATIONS

STATION/POSITION TIME  TEMP    WIND        PRES    WAVE   SWELL
                       AIR SEA DIR/SP/G            HT/PER HT/PER
                 (UTC) (F)     (DEG/KT/KT) (MB)    (FT/S) (FT/S)
CHESAPEAKE LIGHT 1500   79     220/ 12/ 13 1020.3
64 E VA BEACH    1450   78 76  210/ 12/ 14 1019.6    3/ 5   2/ 8
DUCK             1500   82 70  230/ 10/ 12   N/A
2 E DUCK         1411      76                N/A     2/14   2/14
OREGON INLET     1400   80 81  190/ 12/ 13 1020.6
13E OREGON INLT  1500      79                N/A     3/14   2/14
HATTERAS CG      1400   81 80  210/  7/ 11 1020.9
DIAMOND BUOY     1450   81 83  230/ 10/ 12 1021.1    3/ 8   2/ 8
CAPE LOOKOUT     1500   81     250/  8/ 10 1021.0
BEAUFORT LAB     1400   82 81  240/  6/ 10 1020.5
30 SE NEW RVR IN NOT AVBL
27 SE WRIGHTSVLE 1500      80  240/ 10/ 12   N/A
5 SE WRIGHTSVLE  1408   80 78  200/  6/  8 1021.1
225 S CAPE HAT   1450   83 81  200/  8/ 12 1023.5    4/ 8   3/ 8
41 SE CHARLESTON 1450   81 83  210/ 10/ 12 1021.1    3/ 9   3/ 9

$$


USA.gov is the U.S. government's official web portal to all federal, state and local government web resources and services.